OpenBCM V1.13 (Linux)

Packet Radio Mailbox

DB0FHN

[JN59NK Nuernberg]

 Login: GUEST





  
DB3DH  > KEPLER   08.03.03 11:21l 169 Lines 8011 Bytes #999 (20) @ DL
BID : 73DDB0GOS00P
Read: DB0FHN GUEST
Subj: 2 Line Kepler vom 06.03.03 (AMSAT)
Path: DB0FHN<DB0RGB<DB0MRW<DB0ERF<DB0FBB<DB0GOS
Sent: 030307/1135z @:DB0GOS.#NRW.DEU.EU [Essen, JO31LJ] bcm1.45ex LT:020
From: DB3DH @ DB0GOS.#NRW.DEU.EU  (Gerd)
To:   KEPLER @ DL
X-Info: No login password

SB KEPS @ AMSAT  $ORB03065.N
2Line Orbital Elements 03065.AMSAT

HR AMSAT ORBITAL ELEMENTS FOR AMATEUR SATELLITES IN NASA FORMAT
FROM WA5QGD FORT WORTH,TX March 6, 2003
SEND SUBSCRIBE/UNSUBSCRIBE TO majordomo@amsat.org ONLY
BID: ORB03065.N

DECODE 2-LINE ELSETS WITH THE FOLLOWING KEY:
1 AAAAAU 00  0  0 BBBBB.BBBBBBBB  .CCCCCCCC  00000-0  00000-0 0  DDDZ
2 AAAAA EEE.EEEE FFF.FFFF GGGGGGG HHH.HHHH III.IIII JJ.JJJJJJJJKKKKKZ
KEY: A-CATALOGNUM B-EPOCHTIME C-DECAY D-ELSETNUM E-INCLINATION F-RAAN
G-ECCENTRICITY H-ARGPERIGEE I-MNANOM J-MNMOTION K-ORBITNUM Z-CHECKSUM

TO ALL RADIO AMATEURS BT

AO-07
1 07530U 74089B   03064.69532964 -.00000029  00000-0  10000-3 0 01774
2 07530 101.7574 112.3396 0012280 048.6705 311.5410 12.53564615295087
AO-10
1 14129U 83058B   03053.29347507 -.00000135  00000-0  10000-3 0 09207
2 14129 025.9661 163.6642 6025305 329.8586 006.1874 02.05867335148118
UO-11
1 14781U 84021B   03065.38517688  .00001517  00000-0  21725-3 0   889
2 14781  98.1192  39.4325 0009551 152.7767 207.3964 14.78038247 18570
RS-10/11
1 18129U 87054A   03065.25497969  .00000053  00000-0  41252-4 0  2113
2 18129  82.9266 134.9643 0011127 175.7953 184.3294 13.72702311786666
FO-20
1 20480U 90013C   03065.83872885 -.00000001  00000-0  77093-4 0  4672
2 20480  99.0482  25.5232 0540294 327.0591  29.7905 12.83330884612605
RS-12/13
1 21089U 91007A   03065.77501658  .00000063  00000-0  51303-4 0  4956
2 21089  82.9247 169.3595 0027599 241.1551 118.6834 13.74405891606019
RS-15
1 23439U 94085A   03064.90340278 -.00000038  00000-0  13381-3 0 06946
2 23439 064.8179 016.6824 0146589 112.1421 249.5130 11.27547766337328
FO-29
1 24278U 96046B   03064.92497493  .00000047  00000-0  82854-4 0 05794
2 24278 098.5394 214.0618 0350582 176.5620 183.8047 13.52874008323383
SO-33
1 25509U 98061B   03064.40904754  .00000551  00000-0  10093-3 0  7941
2 25509  31.4300  69.3537 0356938  72.4762 291.4595 14.27450749227435
AO-40
1 26609U 00072B   03062.14261750 -.00000314  00000-0  10000-3 0  3132
2 26609   8.2009  61.8922 7947545 149.3793 302.8222  1.25596061 10734
UO-14
1 20437U 90005B   03065.15854009  .00000106  00000-0  55596-4 0  1797
2 20437  98.2686 108.0247 0010873 150.8307 209.3486 14.31242362684729
AO-16
1 20439U 90005D   03064.68159508  .00000154  00000-0  73577-4 0  8607
2 20439  98.3144 119.3435 0011165 159.2957 200.8705 14.31477311684694
WO-18
1 20441U 90005F   03065.84972995  .00000151  00000-0  72490-4 0   277
2 20441  98.3306 123.5928 0011920 155.6562 204.5187 14.31559244684918
LO-19
1 20442U 90005G   03065.68652224  .00000153  00000-0  73072-4 0  9784
2 20442  98.3442 126.4894 0011895 155.3055 204.8700 14.31722566684945
UO-22
1 21575U 91050B   03065.15105592  .00000270  00000-0  10044-3 0  7413
2 21575  98.1422  56.4883 0008580  85.5288 274.6882 14.39164150610524
KO-23
1 22077U 92052B   03065.42732833 -.00000037  00000-0  10000-3 0  1595
2 22077  66.0861  92.5178 0015762 270.1881  89.7331 12.86408987496347
AO-27
1 22825U 93061C   03064.94730996  .00000120  00000-0  63520-4 0 05032
2 22825 098.2741 093.8603 0007682 209.3370 150.7383 14.28947765492070
IO-26
1 22826U 93061D   03064.62513204  .00000144  00000-0  72742-4 0 03365
2 22826 098.2710 094.6739 0008061 212.3256 147.7435 14.29171369492079
KO-25
1 22828U 93061F   03065.65178026  .00000118  00000-0  62172-4 0  4414
2 22828  98.2706  95.9156 0009424 185.3560 174.7523 14.29512808460423
TO-31
1 25396U 98043C   03064.92899752 -.00000043  00000-0  00000-0 0 08316
2 25396 098.6237 141.7299 0003703 092.2338 267.9267 14.23515350241718
GO-32
1 25397U 98043D   03064.95678976  .00000053  00000-0  42790-4 0 01817
2 25397 098.6197 140.6211 0002154 094.8506 265.2918 14.22962751241680
UO-36
1 25693U 99021A   03065.80677625  .00000775  00000-0  13061-3 0  7633
2 25693  64.5615 321.0866 0021590 314.7765  45.1585 14.76408954208657
AO-37
1 26065U 00004E   03065.89150479  .00000166  00000-0  77869-4 0  7497
2 26065 100.2092 123.5842 0036942 241.6405 118.1047 14.35515489162721
SO-41
1 26545U 00057A   03064.89480748  .00001393  00000-0  20322-3 0 04213
2 26545 064.5615 344.8182 0051148 236.1858 123.4373 14.79019562131498
MO-46
1 26548U 00057D   03064.82607539  .00001963  00000-0  26510-3 0 04250
2 26548 064.5598 337.7489 0044402 235.5584 124.1373 14.81320427131638
SO-42
1 26549U 00057E   03065.88921692  .00001307  00000-0  19603-3 0  7099
2 26549  64.5509 345.9564 0055533 235.9726 123.6106 14.77957191131553
NO-44
1 26931U 01043C   03065.20162605  .00000205  00000-0  11341-3 0  4170
2 26931  67.0464 215.3661 0005176 270.0202  90.0312 14.29122809 74583
AO-49
1 27605U 02058A   03065.34835316  .00000676  00000-0  12953-3 0   759
2 27605  64.5522 149.3219 0035588 107.0096 253.4909 14.71394614 11135
SO-50
1 27607U 02058C   03065.35854066  .00001042  00000-0  19381-3 0   687
2 27607  64.5511 149.8428 0036515 102.4741 258.0454 14.69936783 11120
NOAA-10
1 16969U 86073A   03065.74458110  .00000147  00000-0  78693-4 0  6872
2 16969  98.7315  59.8232 0013395  42.6111 317.6107 14.27069962856214
NOAA-11
1 19531U 88089A   03065.70977611  .00000168  00000-0  11061-3 0  5245
2 19531  98.8994 147.0366 0011902 153.1128 207.0669 14.14544608745080
NOAA-12
1 21263U 91032A   03065.70239189  .00000310  00000-0  15050-3 0  9934
2 21263  98.6280  55.0596 0012857 339.6134  20.4531 14.25091330613510
MET-3/5
1 21655U 91056A   03065.40028186  .00000051  00000-0  10000-3 0  5045
2 21655  82.5548  27.6729 0013417 153.9027 206.2775 13.16980686555562
MET-2/21
1 22782U 93055A   03065.08323643  .00000043  00000-0  25860-4 0  5343
2 22782  82.5500 202.5898 0021215 304.2104  55.7071 13.83532935480236
OKEAN-4
1 23317U 94066A   03065.45953456  .00001573  00000-0  19946-3 0  1884
2 23317  82.5417 314.1368 0023524   3.3189 356.8178 14.80953911452450
NOAA-14
1 23455U 94089A   03065.68633116  .00000117  00000-0  87598-4 0  5465
2 23455  99.1864  84.6777 0009298 179.8645 180.2530 14.13302459421755
SICH-1
1 23657U 95046A   03065.87951692  .00001452  00000-0  18816-3 0  9919
2 23657  82.5271  94.5189 0024614 343.6442  16.3979 14.79997062404646
NOAA-15
1 25338U 98030A   03065.68605261  .00000169  00000-0  91826-4 0   301
2 25338  98.5491  87.3988 0009603 271.9983  88.0096 14.24251192250097
RESURS
1 25394U 98043A   03065.23595597  .00000127  00000-0  74286-4 0  4633
2 25394  98.6296 142.8731 0002362  70.0301 290.1132 14.23882662241765
FENGYUN1
1 25730U 99025A   03065.88334892  .00000104  00000-0  79948-4 0  7816
2 25730  98.6330  89.6717 0013821 319.2949  40.7189 14.11736560196939
OKEAN-0
1 25860U 99039A   03064.92360009  .00000619  00000-0  10471-3 0 00581
2 25860 097.8621 111.9634 0001813 052.0313 308.1058 14.72626095195190
NOAA-16
1 26536U 00055A   03065.59747461  .00000148  00000-0  10526-3 0  2352
2 26536  98.9071  13.7644 0009776 260.3680  99.6362 14.11913403126413
NOAA-17
1 27453U 02032A   03065.73437888  .00000258  00000-0  13350-3 0  3286
2 27453  98.7541 136.8589 0011202 313.8517  46.1735 14.23302362 36260
HUBBLE
1 20580U 90037B   03065.02570403  .00003434  00000-0  27152-3 0  3481
2 20580  28.4687 297.6559 0004020  78.0095  66.8594 14.97887844504951
UARS
1 21701U 91063B   03065.65996109  .00001157  00000-0  10436-3 0  8405
2 21701  56.9829 326.9217 0004017 107.5627 252.5884 15.02893119628135
PO-34
1 25520U 98064B   03065.51255108  .00003242  00000-0  16387-3 0  6459
2 25520  28.4585 117.6462 0006003 163.6528 196.4292 15.13960137240000
ISS
1 25544U 98067A   03065.74843361  .00035672  00000-0  44807-3 0  7559
2 25544  51.6365 174.7501 0011650 284.8455 210.9936 15.59272060245022
WO-39
1 26061U 00004A   03064.88824804  .00000442  00000-0  16534-3 0  7804
2 26061 100.2026 124.7955 0034835 235.6858 124.1025 14.37840182162733
OO-38
1 26063U 00004C   03065.72585034  .00000137  00000-0  67581-4 0  7359
2 26063 100.2064 123.2313 0036684 241.3879 118.3608 14.35487186162708
NO-45
1 26932U 01043D   03065.45763194  .00000119  00000-0  79019-4 0  4124
2 26932  67.0528 214.4082 0004383 245.9468 114.1169 14.29299781 74645


Read previous mail | Read next mail


 27.06.2026 06:15:44lGo back Go up